Change the Weather History Date:

Friday, July 5, 2013

  Actual Average Record
Temperature  
Mean Temperature 85 °F 78 °F  
Max Temperature 100 °F 92 °F 110 °F (1966)
Min Temperature 69 °F 65 °F 45 °F (1924)
Cooling Degree Days 19    
Growing Degree Days 34 (Base 50)    
Moisture  
Dew Point 51 °F    
Average Humidity 33    
Maximum Humidity 54    
Minimum Humidity 18    
Precipitation  
Precipitation 0.02 in 0.10 in 0.74 in (1997)
Month to date precipitation 0.02 0.49  
Year to date precipitation 7.04 11.75  
Sea Level Pressure  
Sea Level Pressure 29.74 in    
Wind  
Wind Speed 14 mph (South)    
Max Wind Speed 23 mph    
Max Gust Speed 34 mph    
Visibility 10 miles    
Events      
T = Trace of Precipitation, MM = Missing Value Source: NWS Daily Summary

Daily Weather History Graph

Daily Weather History Graph

Search for Another Location

Airport or City:

Trip Planner

Search our weather history database for the weather conditions in past years. The results will help you decide how hot, cold, wet, or windy it might be!

Date:

Astronomy

Jul. 05, 2013 Rise Set
Actual Time 6:18 AM CDT 9:09 PM CDT
Civil Twilight 5:46 AM CDT 9:41 PM CDT
Nautical Twilight 5:06 AM CDT 10:21 PM CDT
Astronomical Twilight 4:19 AM CDT 11:07 PM CDT
Moon 4:18 AM CDT (7/5) 7:05 PM CDT (7/5)
Length of Visible Light 15h 54m
Length of Day
14h 50m
Waning Crescent, 6% of the Moon is Illuminated
Jul 5
Waning Crescent
Jul 8
New
Jul 15
First Quarter
Jul 22
Full
Jul 29
Last Quarter

Hourly Weather History & Observations

Time (CDT) Temp. Heat Index Dew Point Humidity Pressure Visibility Wind Dir Wind Speed Gust Speed Precip Events Conditions
12:53 AM 75.9 °F - 46.9 °F 36% 29.81 in 10.0 mi South 11.5 mph 18.4 mph N/A   Clear
1:53 AM 77.0 °F - 46.9 °F 34% 29.80 in 10.0 mi South 18.4 mph 24.2 mph N/A   Clear
2:53 AM 75.0 °F - 48.0 °F 38% 29.81 in 10.0 mi South 13.8 mph 21.9 mph N/A   Clear
3:53 AM 73.0 °F - 48.9 °F 42% 29.79 in 10.0 mi South 13.8 mph 21.9 mph N/A   Clear
4:53 AM 72.0 °F - 50.0 °F 46% 29.79 in 10.0 mi South 11.5 mph 19.6 mph N/A   Clear
5:53 AM 70.0 °F - 51.1 °F 51% 29.79 in 10.0 mi South 5.8 mph - N/A   Clear
6:53 AM 69.1 °F - 52.0 °F 54% 29.79 in 10.0 mi Variable 3.5 mph - N/A   Clear
7:53 AM 73.0 °F - 53.1 °F 49% 29.80 in 10.0 mi South 5.8 mph - N/A   Clear
8:53 AM 77.0 °F - 52.0 °F 42% 29.79 in 10.0 mi South 10.4 mph 18.4 mph N/A   Clear
9:53 AM 81.0 °F - 52.0 °F 36% 29.80 in 10.0 mi South 16.1 mph 20.7 mph N/A   Clear
10:53 AM 86.0 °F 84.0 °F 53.1 °F 32% 29.78 in 10.0 mi SSW 12.7 mph 20.7 mph N/A   Clear
11:53 AM 89.1 °F - 52.0 °F 28% 29.76 in 10.0 mi South 15.0 mph 21.9 mph N/A   Clear
1:53 PM 96.1 °F - 52.0 °F 22% 29.72 in 10.0 mi South 20.7 mph 29.9 mph N/A   Clear
2:53 PM 98.1 °F - 50.0 °F 20% 29.70 in 10.0 mi SSE 16.1 mph 27.6 mph N/A   Clear
3:53 PM 99.0 °F - 48.9 °F 18% 29.70 in 10.0 mi South 17.3 mph 24.2 mph N/A   Clear
4:53 PM 98.1 °F - 51.1 °F 20% 29.67 in 10.0 mi SSE 23.0 mph 34.5 mph N/A   Clear
5:53 PM 98.1 °F - 51.1 °F 20% 29.66 in 10.0 mi SSE 20.7 mph 29.9 mph N/A   Clear
6:53 PM 97.0 °F - 50.0 °F 20% 29.66 in 10.0 mi SSE 21.9 mph 29.9 mph N/A   Clear
7:53 PM 93.9 °F - 52.0 °F 24% 29.67 in 10.0 mi SSE 17.3 mph 27.6 mph N/A   Clear
8:53 PM 90.0 °F 87.5 °F 53.1 °F 28% 29.68 in 10.0 mi SE 15.0 mph 26.5 mph N/A   Clear
9:53 PM 88.0 °F 85.9 °F 54.0 °F 31% 29.70 in 10.0 mi SSE 17.3 mph 26.5 mph N/A   Clear
10:53 PM 86.0 °F 84.5 °F 55.0 °F 35% 29.71 in 10.0 mi SSE 21.9 mph 28.8 mph N/A   Scattered Clouds
11:53 PM 84.0 °F 83.0 °F 55.9 °F 38% 29.75 in 10.0 mi South 16.1 mph 27.6 mph N/A   Mostly Cloudy